GW1296 Weather Reports


time (UTC)temp
F
wind
direction
speed
knots
gust
knots
rain 1hr
in
rain 24hr
in
rain mn
in
humidity
%
barometer
mb
20260503050059 50 64 0.0 1.7 0.00 0.01 0.00 95 1011.6
20260503050040 50 64 0.0 2.6 0.00 0.00 0.00 94 1010.6
20260503044607 50 0 0.0 2.6 0.00 0.00 0.00 94 1010.7
20260503044558 50 69 0.0 2.6 0.00 0.01 0.00 95 1011.6
20260503043055 50 67 0.0 2.6 0.00 0.01 0.00 95 1011.6
20260503043039 50 0 0.0 2.6 0.00 0.00 0.00 94 1010.7
20260503041555 50 65 0.0 2.6 0.00 0.01 0.00 95 1011.7
20260503041537 50 0 0.0 2.6 0.00 0.00 0.00 94 1010.7
20260503040104 50 59 0.0 2.6 0.00 0.01 0.00 95 1011.7
20260503040035 50 0 0.0 2.6 0.00 0.00 0.00 94 1010.7
20260503034552 50 61 0.0 3.5 0.00 0.01 0.00 95 1011.9
20260503034534 50 0 0.0 3.5 0.00 0.00 0.00 94 1010.9
20260503033050 50 78 0.0 2.6 0.00 0.01 0.00 95 1012.1
20260503033039 50 0 0.0 2.6 0.00 0.00 0.00 94 1011.1
20260503031601 50 94 0.0 2.6 0.00 0.01 0.00 95 1012.1
20260503031541 50 0 0.0 2.6 0.00 0.00 0.00 94 1011.1
20260503030050 50 115 0.0 3.5 0.00 0.01 0.00 95 1012.0
20260503030040 50 0 0.0 3.5 0.00 0.00 0.00 94 1011.1
20260503024547 51 95 0.0 3.5 0.00 0.01 0.00 95 1012.0
20260503024535 51 95 0.0 3.5 0.00 0.00 0.00 94 1011.1
20260503023050 51 115 0.0 1.7 0.00 0.01 0.00 95 1012.1
20260503023042 51 0 0.0 1.7 0.00 0.00 0.00 94 1011.1
20260503021546 50 117 0.0 3.5 0.00 0.01 0.00 95 1012.1
20260503021540 50 0 0.0 3.5 0.00 0.00 0.00 94 1011.2
20260503020045 50 111 0.9 3.5 0.00 0.01 0.00 94 1012.2
20260503020040 50 116 0.0 3.5 0.00 0.00 0.00 94 1011.2
20260503014604 50 117 0.0 2.6 0.00 0.01 0.00 94 1012.2
20260503014549 51 117 0.0 2.6 0.00 0.00 0.00 94 1011.3
20260503013043 51 128 0.9 4.3 0.00 0.01 0.00 94 1012.3
20260503013035 51 0 0.9 4.3 0.00 0.00 0.00 94 1011.3
20260503011542 51 128 0.0 1.7 0.00 0.01 0.00 94 1012.4
20260503011534 51 0 0.0 1.7 0.00 0.00 0.00 94 1011.5
20260503010041 51 128 0.0 1.7 0.00 0.01 0.00 94 1012.4
20260503004540 51 0 0.0 0.9 0.00 0.00 0.00 94 1011.6
20260503003045 51 0 0.0 1.7 0.00 0.00 0.00 94 1011.7
20260503003038 51 128 0.0 0.9 0.00 0.01 0.00 94 1012.6
20260503001551 51 128 0.0 0.0 0.00 0.01 0.00 94 1012.6
20260503001536 51 0 0.0 0.0 0.00 0.00 0.00 93 1011.6
20260503000047 51 0 0.0 0.9 0.00 0.00 0.00 93 1011.6
20260503000036 51 128 0.0 0.0 0.00 0.01 0.00 94 1012.6
20260502234552 51 0 0.0 0.0 0.00 0.00 0.00 93 1011.7
20260502234540 51 128 0.0 0.0 0.00 0.01 0.00 94 1012.6
20260502233040 50 0 0.0 0.0 0.00 0.00 0.00 93 1011.7
20260502233033 51 128 0.0 0.0 0.00 0.01 0.00 93 1012.6
20260502231539 51 0 0.0 0.0 0.00 0.00 0.00 93 1011.8
20260502231533 51 128 0.0 0.0 0.00 0.01 0.00 93 1012.8
20260502230036 51 0 0.0 0.0 0.00 0.00 0.00 92 1011.7
20260502224534 51 0 0.0 0.0 0.00 0.00 0.00 92 1011.7
20260502223040 51 0 0.0 0.0 0.00 0.00 0.00 92 1011.7
20260502223030 51 128 0.0 0.0 0.00 0.01 0.01 93 1012.7
20260502221532 52 0 0.0 0.0 0.00 0.00 0.00 92 1011.8
20260502220039 52 0 0.0 0.9 0.00 0.00 0.00 92 1011.7
20260502220029 52 130 0.0 0.9 0.01 0.01 0.01 92 1012.8
20260502214545 52 0 0.0 1.7 0.00 0.00 0.00 92 1011.7
20260502214529 52 130 0.0 0.9 0.01 0.01 0.01 92 1012.8
20260502213042 52 0 0.0 0.0 0.00 0.00 0.00 91 1011.7
20260502213027 52 130 0.0 0.0 0.01 0.01 0.01 92 1012.8
20260502211535 52 0 0.0 0.0 0.00 0.00 0.00 91 1011.8
20260502211526 52 130 0.0 0.0 0.00 0.00 0.00 91 1012.9
20260502210034 52 0 0.0 2.6 0.00 0.00 0.00 90 1011.9
20260502210027 52 130 0.0 2.6 0.00 0.00 0.00 91 1012.9
20260502204538 52 120 0.0 3.5 0.00 0.00 0.00 90 1011.7
20260502204528 52 121 0.9 3.5 0.00 0.00 0.00 91 1012.8
20260502203055 52 117 1.7 7.0 0.00 0.00 0.00 89 1011.8
20260502203024 52 117 1.7 6.1 0.00 0.00 0.00 89 1012.9
20260502201543 53 129 0.9 6.1 0.00 0.00 0.00 87 1011.8
20260502201525 53 135 0.9 6.1 0.00 0.00 0.00 88 1012.9
20260502200045 54 118 0.9 3.5 0.00 0.00 0.00 86 1011.8
20260502200023 54 117 0.9 3.5 0.00 0.00 0.00 86 1013.0
20260502194536 54 134 0.0 5.2 0.00 0.00 0.00 84 1011.7
20260502194522 54 134 0.9 5.2 0.00 0.00 0.00 85 1012.9
20260502193040 55 0 0.0 2.6 0.00 0.00 0.00 84 1011.7
20260502193023 55 119 0.0 2.6 0.00 0.00 0.00 84 1012.8
20260502191544 55 0 0.9 3.5 0.00 0.00 0.00 83 1011.7
20260502191522 55 131 0.9 3.5 0.00 0.00 0.00 84 1012.9
20260502190039 55 126 0.0 5.2 0.00 0.00 0.00 83 1011.6
20260502190021 55 124 0.0 5.2 0.00 0.00 0.00 83 1012.8
20260502184539 56 0 0.0 4.3 0.00 0.00 0.00 82 1011.6
20260502184532 56 123 0.0 3.5 0.00 0.00 0.00 83 1012.8
20260502183037 56 0 0.0 3.5 0.00 0.00 0.00 83 1011.6
20260502183028 56 117 0.0 3.5 0.00 0.00 0.00 83 1012.7
20260502181534 56 117 0.9 6.1 0.00 0.00 0.00 82 1011.5
20260502181520 56 117 0.9 3.5 0.00 0.00 0.00 82 1012.7
20260502163050 59 0 0.9 6.1 0.00 0.00 0.00 79 1011.7
20260502163016 59 116 0.9 6.1 0.00 0.00 0.00 79 1012.7
20260502161554 58 123 1.7 8.7 0.00 0.00 0.00 79 1011.8
20260502161513 58 116 0.9 8.7 0.00 0.00 0.00 79 1012.9
20260502151540 60 0 0.9 4.3 0.00 0.00 0.00 75 1012.4
20260502151507 60 130 0.0 3.5 0.00 0.00 0.00 75 1013.5
20260502123106 59 121 1.7 7.0 0.00 0.00 0.00 73 1013.7
20260502123055 59 115 1.7 7.0 0.00 0.00 0.00 73 1014.7
20260502121555 60 113 0.9 5.2 0.00 0.00 0.00 71 1014.9
20260502121540 60 180 0.9 5.2 0.00 0.00 0.00 71 1013.9
20260502114553 60 242 0.0 2.6 0.00 0.00 0.00 70 1015.0
20260502114534 60 0 0.0 2.6 0.00 0.00 0.00 70 1014.0
20260502113051 59 255 0.0 3.5 0.00 0.00 0.00 71 1014.9
20260502113037 59 0 0.0 3.5 0.00 0.00 0.00 71 1013.9
20260502111552 59 266 0.9 5.2 0.00 0.00 0.00 70 1014.9
20260502111544 59 267 0.9 5.2 0.00 0.00 0.00 70 1013.9
20260502110053 60 192 0.9 3.5 0.00 0.00 0.00 70 1014.9
20260502110042 60 179 0.9 3.5 0.00 0.00 0.00 69 1014.0
20260502104548 60 167 0.0 4.3 0.00 0.00 0.00 72 1015.0
20260502104536 60 0 0.0 5.2 0.00 0.00 0.00 71 1014.1
20260502103048 60 115 1.7 7.0 0.00 0.00 0.00 72 1015.1
20260502103042 60 0 1.7 7.0 0.00 0.00 0.00 71 1014.1
20260502101552 59 142 0.9 3.5 0.00 0.00 0.00 71 1015.2
20260502101541 59 117 0.9 3.5 0.00 0.00 0.00 70 1014.3
20260502091534 60 0 0.9 6.1 0.00 0.00 0.00 71 1014.7
20260502071533 57 129 0.0 2.6 0.00 0.00 0.00 77 1015.1
20260502071515 57 129 0.0 1.7 0.00 0.00 0.00 78 1016.2
20260502070040 55 0 0.0 3.5 0.00 0.00 0.00 82 1015.2
20260502070011 55 129 0.0 2.6 0.00 0.00 0.00 82 1016.3
20260502064545 54 0 0.0 0.0 0.00 0.00 0.00 82 1015.2
20260502064509 54 161 0.0 0.0 0.00 0.00 0.00 82 1016.3
20260502063035 53 0 0.0 0.0 0.00 0.00 0.00 85 1015.2
20260502063022 53 161 0.0 0.0 0.00 0.00 0.00 86 1016.3
20260502061534 52 0 0.0 0.0 0.00 0.00 0.00 88 1015.2
20260502061507 52 161 0.0 0.0 0.00 0.00 0.00 89 1016.4
20260502060040 50 0 0.0 0.0 0.00 0.00 0.00 88 1015.2
20260502060003 50 161 0.0 0.0 0.00 0.00 0.00 89 1016.4
20260502054559 49 161 0.0 0.0 0.00 0.00 0.00 89 1016.3
20260502054538 49 0 0.0 0.0 0.00 0.00 0.00 88 1015.1
20260502053122 49 161 0.0 0.0 0.00 0.00 0.00 88 1016.2
20260502053038 49 0 0.0 0.0 0.00 0.00 0.00 87 1015.1
20260502051606 50 161 0.0 0.0 0.00 0.00 0.00 87 1016.3
20260502051537 50 0 0.0 0.0 0.00 0.00 0.00 86 1015.1